Location: Seasalter
(51.3333°N, 1.0167°E)
Time: 04:17:01
(UTC+00:00)

NPP - Pass Details

Date: 26 September 2023
Orbit: 826 x 828 km, 98.7° (Epoch: 29 November)

Event Time Altitude Azimuth Distance (km) Brightness Sun altitude
Rises 02:38:46 0° 11° (N) 3,384 7.6 -28.2°
Reaches altitude 10° 02:41:12 10° 6° (N) 2,446 6.6 -28.0°
Enters shadow 02:45:34 43° 319° (NW) 1,151 4.3 -27.4°
